TimeAKST,TemperatureF,Dew PointF,Humidity,Sea Level PressureIn,VisibilityMPH,Wind Direction,Wind SpeedMPH,Gust SpeedMPH,PrecipitationIn,Events,Conditions,WindDirDegrees,DateUTC
12:53 AM,45.0,27.0,49,29.52,10.0,ESE,26.5,33.4,N/A,,Partly Cloudy,120,2012-12-29 09:53:00
1:53 AM,36.0,18.0,48,29.48,10.0,North,11.5,20.7,N/A,,Overcast,350,2012-12-29 10:53:00
2:53 AM,35.1,18.0,50,29.43,10.0,North,8.1,-,N/A,,Overcast,350,2012-12-29 11:53:00
3:53 AM,37.9,19.0,47,29.38,10.0,NNW,6.9,17.3,N/A,,Overcast,340,2012-12-29 12:53:00
4:53 AM,39.0,21.0,49,29.39,10.0,NNE,15.0,31.1,0.00,,Overcast,20,2012-12-29 13:53:00
5:53 AM,41.0,33.1,73,29.42,10.0,ESE,20.7,31.1,0.00,Rain,Light Rain,120,2012-12-29 14:53:00
6:03 AM,39.2,33.8,81,29.40,7.0,ESE,25.3,35.7,0.01,Rain,Light Rain,110,2012-12-29 15:03:00
6:36 AM,39.2,33.8,81,29.35,9.0,ESE,25.3,38.0,0.04,Rain,Light Rain,110,2012-12-29 15:36:00
6:53 AM,39.0,33.1,79,29.34,10.0,ESE,24.2,43.7,0.04,Rain,Light Rain,110,2012-12-29 15:53:00
7:53 AM,37.0,28.9,73,29.37,10.0,ENE,13.8,24.2,0.00,,Overcast,60,2012-12-29 16:53:00
8:53 AM,37.0,28.0,70,29.40,10.0,NW,9.2,-,N/A,,Mostly Cloudy,320,2012-12-29 17:53:00
9:53 AM,39.9,28.0,63,29.42,10.0,NNE,13.8,27.6,N/A,,Mostly Cloudy,20,2012-12-29 18:53:00
10:29 AM,44.6,26.6,49,29.42,10.0,SE,24.2,31.1,N/A,,Mostly Cloudy,140,2012-12-29 19:29:00
10:53 AM,44.1,27.0,51,29.44,10.0,SE,20.7,35.7,N/A,,Mostly Cloudy,130,2012-12-29 19:53:00
11:53 AM,45.0,28.0,52,29.47,10.0,SE,24.2,34.5,N/A,,Mostly Cloudy,130,2012-12-29 20:53:00
12:53 PM,44.1,28.0,53,29.48,10.0,SE,23.0,35.7,N/A,,Mostly Cloudy,130,2012-12-29 21:53:00
1:53 PM,44.1,27.0,51,29.51,10.0,SE,21.9,-,N/A,,Mostly Cloudy,130,2012-12-29 22:53:00
2:53 PM,43.0,26.1,51,29.53,10.0,SE,9.2,-,N/A,,Mostly Cloudy,140,2012-12-29 23:53:00
3:53 PM,45.0,23.0,42,29.53,10.0,ESE,21.9,31.1,N/A,,Overcast,120,2012-12-30 00:53:00
4:53 PM,45.0,21.9,40,29.51,10.0,SSE,15.0,21.9,N/A,,Overcast,150,2012-12-30 01:53:00
5:53 PM,44.1,24.1,45,29.51,10.0,SE,19.6,33.4,N/A,,Overcast,130,2012-12-30 02:53:00
6:53 PM,36.0,23.0,59,29.49,10.0,NNW,10.4,-,N/A,,Clear,330,2012-12-30 03:53:00
7:53 PM,37.0,21.0,52,29.46,10.0,North,13.8,-,N/A,,Clear,350,2012-12-30 04:53:00
8:53 PM,43.0,18.0,37,29.40,10.0,East,8.1,-,N/A,,Clear,100,2012-12-30 05:53:00
9:53 PM,42.1,21.9,45,29.36,10.0,Calm,Calm,-,N/A,,Overcast,0,2012-12-30 06:53:00
10:53 PM,37.9,21.0,51,29.31,10.0,North,13.8,-,N/A,,Overcast,350,2012-12-30 07:53:00
11:53 PM,39.0,21.9,50,29.27,10.0,Variable,6.9,-,N/A,,Overcast,0,2012-12-30 08:53:00